Home   Weather   Bantam   Past weeks

Flag for Cocos Islands Past Weather in Bantam, Cocos Islands — Yesterday and Last 2 Weeks

Now
77 °F

Sprinkles. Overcast.


Feels Like: 78 °F
Forecast: 80 / 86 °F
Wind: 8 mph from South

Location: Cocos Island Airport

Current Time: Feb 19, 2017 at 8:42:37 pm

Latest Report: Feb 19, 2017 at 8:03 pm


Visibility: N/A

Pressure: 29.83 "Hg

Humidity: 94%

Dew Point: 75 °F

Location of BantamLocation

Past Weather in Bantam — Graph

°F

Bantam Temperature Yesterday

Maximum temperature yesterday: 86 °F (at 12:40 pm)
Minimum temperature yesterday: 79 °F (at 2:30 am)
Average temperature yesterday: 82 °F

High & Low Weather Summary for the Past Weeks

 TemperatureHumidityPressure
High88 °F (Feb 19, 12:04 pm)100% (Feb 14, 5:30 am)29.95 "Hg (Feb 14, 5:30 am)
Low73 °F (Feb 11, 5:30 am)45% (Feb 14, 3:00 pm)29.74 "Hg (Feb 5, 2:00 pm)
Average81 °F70%29.84 "Hg
* Reported Feb 4 7:30 pm — Feb 19 7:30 pm, Bantam, Weather by CustomWeather, © 2017

Note: Actual official high and low records may vary slightly from our data, if they occured in-between our weather recording intervals... More about our weather records

Advertising

Bantam Weather History for the Previous 24 Hours

Scroll right to see more
 ConditionsComfort  
Time TempWeatherWind HumidityBarometerVisibility
7:30 pm
Sun, Feb 19
79 °FOvercast.7 mph89%29.83 "HgN/A
7:00 pm79 °FCloudy.7 mph89%29.83 "HgN/A
6:30 pm79 °FCloudy.6 mph89%29.80 "HgN/A
6:00 pm79 °FCloudy.5 mph89%29.80 "HgN/A
5:30 pm79 °FCloudy.7 mph89%29.80 "HgN/A
5:00 pm79 °FCloudy.10 mph89%29.80 "HgN/A
4:41 pm79 °FCloudy.14 mph89%29.80 "Hg4 mi
4:30 pm81 °FCloudy.16 mph79%29.80 "HgN/A
4:00 pm82 °FOvercast.16 mph70%29.80 "HgN/A
3:30 pm82 °FCloudy.17 mph74%29.80 "HgN/A
3:00 pm84 °FMostly cloudy.18 mph74%29.80 "HgN/A
2:30 pm86 °FCloudy.15 mph66%29.80 "HgN/A
2:00 pm86 °FScattered clouds.16 mph70%29.80 "HgN/A
1:30 pm88 °FSunny.13 mph59%29.83 "HgN/A
1:00 pm88 °FScattered clouds.13 mph62%29.83 "HgN/A
12:50 pm86 °FScattered clouds.13 mph62%29.83 "HgN/A
12:30 pm88 °FScattered clouds.13 mph62%29.83 "Hg6 mi
12:04 pm88 °FBroken clouds.13 mph62%29.86 "Hg3 mi
11:30 am86 °FScattered clouds.13 mph66%29.86 "HgN/A
11:00 am86 °FScattered clouds.12 mph62%29.86 "HgN/A
10:30 am86 °FBroken clouds.12 mph62%29.89 "HgN/A
10:00 am86 °FPartly sunny.10 mph59%29.89 "HgN/A
9:30 am86 °FSunny.13 mph62%29.89 "HgN/A
9:00 am84 °FScattered clouds.12 mph66%29.89 "HgN/A
8:30 am82 °FScattered clouds.13 mph70%29.89 "HgN/A
7:30 am82 °FScattered clouds.10 mph70%29.89 "HgN/A
6:30 am81 °FPassing clouds.9 mph74%29.86 "HgN/A
6:00 am81 °FPassing clouds.9 mph74%29.86 "HgN/A
5:30 am81 °FPassing clouds.9 mph74%29.86 "HgN/A
5:00 am81 °FPassing clouds.9 mph74%29.86 "HgN/A
4:30 am79 °FPassing clouds.9 mph79%29.86 "HgN/A
4:00 am79 °FPassing clouds.10 mph79%29.86 "HgN/A
3:30 am79 °FClear.10 mph79%29.86 "HgN/A
3:00 am81 °FPassing clouds.10 mph74%29.86 "HgN/A
2:30 am79 °FPassing clouds.10 mph79%29.86 "HgN/A
2:00 am81 °FPassing clouds.10 mph74%29.86 "HgN/A
1:30 am81 °FClear.10 mph74%29.89 "HgN/A
1:00 am81 °FClear.10 mph79%29.89 "HgN/A
12:30 am81 °FClear.10 mph74%29.89 "HgN/A
12:00 am81 °FClear.12 mph79%29.92 "HgN/A
11:30 pm
Sat, Feb 18
81 °FPassing clouds.12 mph74%29.92 "HgN/A
11:00 pm81 °FClear.10 mph74%29.92 "HgN/A
10:30 pm81 °FPassing clouds.12 mph74%29.92 "HgN/A
9:30 pm81 °FPassing clouds.10 mph79%29.92 "HgN/A
9:00 pm81 °FClear.10 mph74%29.92 "HgN/A
8:30 pm81 °FClear.12 mph74%29.89 "HgN/A
8:00 pm81 °FClear.12 mph74%29.89 "HgN/A
Weather by CustomWeather, © 2017

See weather overviewHow to use our weather pages